This demonstration page uses our WeatherBlox Daily Observations layout. Learn more.

Left ArrowRight Arrow

39.12711, -84.51439

Hourly Observations for August 8, 2018

Temp ( °F °C ) Dew Point ( °F °C ) Humidity (%) Winds ( mph kmh ) Pressure ( in mb ) Visibility ( mi km ) Precip ( " mm )
12:53 am 00:53 Mostly Cloudy 72 22.2 72 22.2 100 100 SW 3 6 29.97 1015 10 16 N/A
1:40 am 01:40 Cloudy with Heavy Rain 72 22.2 72 22.2 100 100 S 12 19 29.94 1014 2 3 0.19 4.83
1:53 am 01:53 Cloudy with Light Rain 73 22.8 73 22.8 100 100 SW 6 9 29.96 1015 3 5 0.27 6.86
2:53 am 02:53 Mostly Cloudy 72 22.2 72 22.2 100 100 SW 5 7 29.95 1014 8 13 0.01 0.25
3:53 am 03:53 Mostly Clear 72 22.2 72 22.2 100 100 SSW 5 7 29.95 1014 8 13 N/A
4:53 am 04:53 Mostly Cloudy with Light Rain 72 22.2 72 22.2 100 100 N N/A 29.96 1014 4 6 0.02 0.51
5:15 am 05:15 Mostly Cloudy with Light Rain 72 22.2 72 22.2 100 100 S 5 7 29.94 1014 8 13 0.01 0.25
5:35 am 05:35 Mostly Cloudy 72 22.2 72 22.2 100 100 S 6 9 29.94 1014 10 16 0.01 0.25
5:53 am 05:53 Mostly Cloudy with Light Rain 72 22.2 72 22.2 100 100 N N/A 29.95 1014 9 14 0.02 0.51
6:11 am 06:11 Mostly Cloudy 72 22.2 72 22.2 100 100 SSW 5 7 29.94 1014 8 13 N/A
6:42 am 06:42 Cloudy 72 22.2 72 22.2 100 100 S 7 11 29.94 1014 9 14 N/A
6:53 am 06:53 Cloudy 72 22.2 72 22.2 100 100 S 6 9 29.97 1015 9 14 N/A
7:04 am 07:04 Cloudy 72 22.2 72 22.2 100 100 S 6 9 29.94 1014 8 13 N/A
7:53 am 07:53 Cloudy 72 22.2 72 22.2 100 100 S 5 7 29.96 1015 9 14 N/A
8:53 am 08:53 Mostly Cloudy 74 23.3 73 22.8 97 97 SSW 5 7 29.97 1015 10 16 N/A
9:53 am 09:53 Mostly Cloudy 75 23.9 73 22.8 94 94 S 5 7 29.98 1015 10 16 N/A
10:53 am 10:53 Cloudy 76 24.4 72 22.2 88 88 W 7 11 29.97 1015 10 16 N/A
11:53 am 11:53 Cloudy 79 26.1 73 22.8 82 82 VRB 5 7 29.97 1015 10 16 N/A
12:40 pm 12:40 Mostly Cloudy 80 26.7 74 23.3 82 82 SW 6 9 29.94 1014 9 14 N/A
12:53 pm 12:53 Mostly Cloudy 81 27.2 74 23.3 79 79 SSW 7 11 29.95 1014 10 16 N/A
1:53 pm 13:53 Mostly Cloudy 81 27.2 73 22.8 77 77 SW 9 15 29.95 1014 10 16 N/A
2:04 pm 14:04 Mostly Cloudy 81 27.2 73 22.8 77 77 SW 8 13 29.94 1014 10 16 N/A
2:46 pm 14:46 Partly Cloudy 82 27.8 72 22.2 72 72 WSW 8 13 29.91 1013 10 16 N/A
2:53 pm 14:53 Partly Cloudy 82 27.8 73 22.8 74 74 W 9 15 29.93 1014 10 16 N/A
3:53 pm 15:53 Sunny 82 27.8 72 22.2 72 72 W 8 13 29.91 1013 10 16 N/A
4:53 pm 16:53 Sunny 83 28.3 73 22.8 72 72 SW 8 13 29.91 1013 10 16 N/A
5:53 pm 17:53 Sunny 83 28.3 74 23.3 74 74 S 12 19 29.90 1013 10 16 N/A
6:53 pm 18:53 Partly Cloudy 81 27.2 74 23.3 79 79 S 9 15 29.89 1012 10 16 N/A
7:53 pm 19:53 Mostly Sunny 80 26.7 73 22.8 79 79 SW 9 15 29.91 1013 10 16 N/A
8:33 pm 20:33 Sunny with Nearby Thunderstorms 77 25 73 22.8 88 88 SSW 7 11 29.91 1013 9 14 N/A
8:53 pm 20:53 Mostly Cloudy with Nearby Thunderstorms 78 25.6 69 20.6 74 74 NW 15 24 29.93 1014 10 16 N/A
9:02 pm 21:02 Mostly Cloudy 76 24.4 69 20.6 79 79 NW 17 28 29.91 1013 10 16 N/A
9:53 pm 21:53 Cloudy with Light Rain 71 21.7 71 21.7 100 100 SE 5 7 29.93 1014 8 13 0.14 3.56
10:53 pm 22:53 Cloudy 72 22.2 70 21.1 94 94 S 7 11 29.95 1014 10 16 N/A
11:53 pm 23:53 Mostly Clear 70 21.1 69 20.6 97 97 S 6 9 29.95 1014 10 16 N/A

Powered by AerisWeather